| time (UTC) | temp C | wind direction | speed KPH | gust KPH | rain 1hr cm | rain 24hr cm | rain mn cm | humidity % | barometer mb |
| 20260505024521 | 17 | 96 | 11.3 | 19.3 | 0.00 | 0.03 | 0.03 | 86 | 1027.8 |
| 20260505023020 | 17 | 96 | 12.9 | 22.5 | 0.00 | 0.03 | 0.03 | 86 | 1027.8 |
| 20260505021519 | 17 | 105 | 12.9 | 22.5 | 0.00 | 0.03 | 0.03 | 86 | 1027.9 |
| 20260505020017 | 17 | 86 | 8.0 | 24.1 | 0.00 | 0.03 | 0.03 | 86 | 1027.9 |
| 20260505014517 | 17 | 91 | 14.5 | 24.1 | 0.00 | 0.03 | 0.03 | 86 | 1028.0 |
| 20260505013015 | 17 | 99 | 12.9 | 20.9 | 0.00 | 0.03 | 0.03 | 86 | 1028.1 |
| 20260505011514 | 17 | 83 | 14.5 | 24.1 | 0.00 | 0.03 | 0.03 | 85 | 1028.2 |
| 20260505010014 | 17 | 87 | 12.9 | 20.9 | 0.00 | 0.03 | 0.03 | 84 | 1028.4 |
| 20260505004511 | 17 | 114 | 11.3 | 20.9 | 0.00 | 0.03 | 0.03 | 85 | 1028.4 |
| 20260505003007 | 17 | 123 | 16.1 | 24.1 | 0.00 | 0.03 | 0.03 | 85 | 1028.7 |
| 20260505001503 | 16 | 109 | 16.1 | 22.5 | 0.00 | 0.03 | 0.03 | 86 | 1029.0 |
| 20260505000001 | 16 | 114 | 12.9 | 24.1 | 0.00 | 0.03 | 0.03 | 86 | 1029.1 |
| 20260504234601 | 16 | 119 | 11.3 | 17.7 | 0.00 | 0.03 | 0.03 | 85 | 1029.3 |
| 20260504233112 | 16 | 86 | 9.7 | 17.7 | 0.00 | 0.03 | 0.03 | 85 | 1029.5 |
| 20260504231604 | 16 | 127 | 11.3 | 19.3 | 0.00 | 0.03 | 0.03 | 85 | 1029.6 |
| 20260504230059 | 16 | 150 | 8.0 | 19.3 | 0.00 | 0.03 | 0.03 | 85 | 1029.7 |
| 20260504224607 | 16 | 128 | 8.0 | 17.7 | 0.00 | 0.03 | 0.03 | 85 | 1029.8 |
| 20260504223129 | 16 | 109 | 4.8 | 12.9 | 0.00 | 0.03 | 0.03 | 85 | 1029.9 |
| 20260504221555 | 16 | 142 | 9.7 | 14.5 | 0.00 | 0.03 | 0.03 | 86 | 1030.0 |
| 20260504220052 | 15 | 148 | 3.2 | 8.0 | 0.00 | 0.03 | 0.03 | 85 | 1029.9 |
| 20260504214553 | 15 | 149 | 0.0 | 0.0 | 0.00 | 0.03 | 0.03 | 86 | 1030.0 |
| 20260504213101 | 15 | 125 | 0.0 | 0.0 | 0.00 | 0.03 | 0.03 | 86 | 1030.1 |
| 20260504211549 | 15 | 123 | 0.0 | 6.4 | 0.00 | 0.03 | 0.03 | 86 | 1030.1 |
| 20260504210051 | 15 | 149 | 3.2 | 9.7 | 0.00 | 0.03 | 0.03 | 87 | 1030.1 |
| 20260504204550 | 15 | 148 | 3.2 | 11.3 | 0.00 | 0.03 | 0.03 | 87 | 1030.0 |
| 20260504203104 | 14 | 155 | 4.8 | 11.3 | 0.00 | 0.03 | 0.03 | 88 | 1030.0 |
| 20260504201554 | 14 | 146 | 3.2 | 11.3 | 0.00 | 0.03 | 0.03 | 88 | 1030.0 |
| 20260504200047 | 13 | 148 | 3.2 | 11.3 | 0.00 | 0.03 | 0.03 | 88 | 1029.8 |
| 20260504194547 | 13 | 158 | 4.8 | 8.0 | 0.00 | 0.03 | 0.03 | 88 | 1029.6 |
| 20260504193047 | 13 | 147 | 4.8 | 8.0 | 0.00 | 0.03 | 0.03 | 88 | 1029.6 |
| 20260504191554 | 13 | 156 | 6.4 | 11.3 | 0.00 | 0.03 | 0.03 | 88 | 1029.6 |
| 20260504190047 | 13 | 165 | 8.0 | 11.3 | 0.00 | 0.03 | 0.03 | 88 | 1029.5 |
| 20260504184544 | 13 | 139 | 4.8 | 9.7 | 0.00 | 0.03 | 0.03 | 88 | 1029.5 |
| 20260504183042 | 13 | 130 | 1.6 | 11.3 | 0.00 | 0.03 | 0.03 | 88 | 1029.5 |
| 20260504181546 | 13 | 149 | 4.8 | 11.3 | 0.00 | 0.03 | 0.03 | 88 | 1029.5 |
| 20260504180042 | 13 | 155 | 0.0 | 4.8 | 0.00 | 0.03 | 0.03 | 88 | 1029.5 |
| 20260504174543 | 14 | 128 | 0.0 | 0.0 | 0.00 | 0.03 | 0.03 | 88 | 1029.5 |
| 20260504173041 | 14 | 124 | 0.0 | 0.0 | 0.00 | 0.03 | 0.03 | 88 | 1029.5 |
| 20260504171546 | 14 | 123 | 0.0 | 3.2 | 0.00 | 0.03 | 0.03 | 88 | 1029.5 |
| 20260504081544 | 14 | 126 | 4.8 | 11.3 | 0.00 | 0.00 | 0.00 | 83 | 1030.6 |
| 20260504044544 | 16 | 120 | 9.7 | 14.5 | 0.00 | 0.00 | 0.00 | 76 | 1029.7 |
| 20260504043037 | 16 | 106 | 11.3 | 16.1 | 0.00 | 0.00 | 0.00 | 75 | 1029.7 |
| 20260504041535 | 16 | 101 | 8.0 | 16.1 | 0.00 | 0.00 | 0.00 | 74 | 1029.7 |
| 20260504040044 | 17 | 126 | 9.7 | 16.1 | 0.00 | 0.00 | 0.00 | 73 | 1029.9 |
| 20260504034534 | 17 | 119 | 11.3 | 17.7 | 0.00 | 0.00 | 0.00 | 71 | 1029.9 |
| 20260504033033 | 17 | 101 | 11.3 | 17.7 | 0.00 | 0.00 | 0.00 | 73 | 1029.9 |
| 20260504031533 | 17 | 122 | 12.9 | 19.3 | 0.00 | 0.00 | 0.00 | 72 | 1029.8 |
| 20260504030031 | 17 | 103 | 9.7 | 20.9 | 0.00 | 0.00 | 0.00 | 73 | 1029.9 |